Year,Month,Day,Hour,Minute,Value (Times are PST for temperature in C)
2016,04,04,00,00,10.10
2016,04,04,00,01,10.10
2016,04,04,00,02,10.00
2016,04,04,00,03,10.00
2016,04,04,00,04,10.00
2016,04,04,00,05,10.00
2016,04,04,00,06,10.00
2016,04,04,00,07,10.00
2016,04,04,00,08,9.90
2016,04,04,00,09,9.90
2016,04,04,00,10,9.90
2016,04,04,00,11,9.90
2016,04,04,00,12,9.90
2016,04,04,00,13,9.90
2016,04,04,00,14,9.90
2016,04,04,00,15,9.90
2016,04,04,00,16,9.90
2016,04,04,00,17,9.80
2016,04,04,00,18,9.80
2016,04,04,00,19,9.80
2016,04,04,00,20,9.80
2016,04,04,00,21,9.80
2016,04,04,00,22,9.80
2016,04,04,00,23,9.90
2016,04,04,00,24,9.90
2016,04,04,00,25,9.90
2016,04,04,00,26,9.90
2016,04,04,00,27,9.90
2016,04,04,00,28,9.90
2016,04,04,00,29,9.90
2016,04,04,00,30,10.00
2016,04,04,00,31,10.00
2016,04,04,00,32,10.00
2016,04,04,00,33,10.00
2016,04,04,00,34,10.10
2016,04,04,00,35,10.10
2016,04,04,00,36,10.10
2016,04,04,00,37,10.10
2016,04,04,00,38,10.10
2016,04,04,00,39,10.00
2016,04,04,00,40,10.00
2016,04,04,00,41,10.00
2016,04,04,00,42,10.00
2016,04,04,00,43,10.00
2016,04,04,00,44,9.90
2016,04,04,00,45,9.90
2016,04,04,00,46,9.90
2016,04,04,00,47,9.90
2016,04,04,00,48,9.90
2016,04,04,00,49,9.90
2016,04,04,00,50,9.90
2016,04,04,00,51,9.80
2016,04,04,00,52,9.80
2016,04,04,00,53,9.80
2016,04,04,00,54,9.80
2016,04,04,00,55,9.80
2016,04,04,00,56,9.80
2016,04,04,00,57,9.80
2016,04,04,00,58,9.80
2016,04,04,00,59,9.80
2016,04,04,01,00,9.80
2016,04,04,01,01,9.80
2016,04,04,01,02,9.80
2016,04,04,01,03,9.80
2016,04,04,01,04,9.80
2016,04,04,01,05,9.80
2016,04,04,01,06,9.80
2016,04,04,01,07,9.80
2016,04,04,01,08,9.80
2016,04,04,01,09,9.70
2016,04,04,01,10,9.70
2016,04,04,01,11,9.70
2016,04,04,01,12,9.70
2016,04,04,01,13,9.70
2016,04,04,01,14,9.70
2016,04,04,01,15,9.70
2016,04,04,01,16,9.70
2016,04,04,01,17,9.70
2016,04,04,01,18,9.70
2016,04,04,01,19,9.70
2016,04,04,01,20,9.70
2016,04,04,01,21,9.70
2016,04,04,01,22,9.70
2016,04,04,01,23,9.70
2016,04,04,01,24,9.70
2016,04,04,01,25,9.70
2016,04,04,01,26,9.70
2016,04,04,01,27,9.70
2016,04,04,01,28,9.70
2016,04,04,01,29,9.70
2016,04,04,01,30,9.70
2016,04,04,01,31,9.70
2016,04,04,01,32,9.70
2016,04,04,01,33,9.60
2016,04,04,01,34,9.70
2016,04,04,01,35,9.70
2016,04,04,01,36,9.70
2016,04,04,01,37,9.70
2016,04,04,01,38,9.70
2016,04,04,01,39,9.70
2016,04,04,01,40,9.70
2016,04,04,01,41,9.70
2016,04,04,01,42,9.70
2016,04,04,01,43,9.70
2016,04,04,01,44,9.70
2016,04,04,01,45,9.70
2016,04,04,01,46,9.80
2016,04,04,01,47,9.80
2016,04,04,01,48,9.80
2016,04,04,01,49,9.80
2016,04,04,01,50,9.80
2016,04,04,01,51,9.90
2016,04,04,01,52,9.90
2016,04,04,01,53,9.90
2016,04,04,01,54,9.90
2016,04,04,01,55,9.90
2016,04,04,01,56,9.90
2016,04,04,01,57,10.00
2016,04,04,01,58,10.00
2016,04,04,01,59,10.00
2016,04,04,02,00,10.00
2016,04,04,02,01,10.00
2016,04,04,02,02,10.00
2016,04,04,02,03,10.00
2016,04,04,02,04,9.90
2016,04,04,02,05,9.90
2016,04,04,02,06,9.90
2016,04,04,02,07,9.90
2016,04,04,02,08,9.90
2016,04,04,02,09,9.90
2016,04,04,02,10,9.90
2016,04,04,02,11,9.90
2016,04,04,02,12,9.90
2016,04,04,02,13,10.00
2016,04,04,02,14,9.90
2016,04,04,02,15,9.90
2016,04,04,02,16,9.90
2016,04,04,02,17,9.90
2016,04,04,02,18,9.90
2016,04,04,02,19,9.90
2016,04,04,02,20,9.90
2016,04,04,02,21,9.90
2016,04,04,02,22,9.90
2016,04,04,02,23,9.90
2016,04,04,02,24,9.90
2016,04,04,02,25,9.90
2016,04,04,02,26,9.90
2016,04,04,02,27,9.90
2016,04,04,02,28,9.80
2016,04,04,02,29,9.80
2016,04,04,02,30,9.80
2016,04,04,02,31,9.80
2016,04,04,02,32,9.80
2016,04,04,02,33,9.80
2016,04,04,02,34,9.80
2016,04,04,02,35,9.80
2016,04,04,02,36,9.70
2016,04,04,02,37,9.70
2016,04,04,02,38,9.70
2016,04,04,02,39,9.70
2016,04,04,02,40,9.70
2016,04,04,02,41,9.70
2016,04,04,02,42,9.70
2016,04,04,02,43,9.70
2016,04,04,02,44,9.70
2016,04,04,02,45,9.70
2016,04,04,02,46,9.60
2016,04,04,02,47,9.60
2016,04,04,02,48,9.60
2016,04,04,02,49,9.50
2016,04,04,02,50,9.50
2016,04,04,02,51,9.50
2016,04,04,02,52,9.40
2016,04,04,02,53,9.40
2016,04,04,02,54,9.40
2016,04,04,02,55,9.30
2016,04,04,02,56,9.30
2016,04,04,02,57,9.30
2016,04,04,02,58,9.30
2016,04,04,02,59,9.30
2016,04,04,03,00,9.30
2016,04,04,03,01,9.30
2016,04,04,03,02,9.20
2016,04,04,03,03,9.20
2016,04,04,03,04,9.20
2016,04,04,03,05,9.20
2016,04,04,03,06,9.20
2016,04,04,03,07,9.20
2016,04,04,03,08,9.20
2016,04,04,03,09,9.20
2016,04,04,03,10,9.20
2016,04,04,03,11,9.20
2016,04,04,03,12,9.20
2016,04,04,03,13,9.20
2016,04,04,03,14,9.20
2016,04,04,03,15,9.20
2016,04,04,03,16,9.20
2016,04,04,03,17,9.20
2016,04,04,03,18,9.20
2016,04,04,03,19,9.20
2016,04,04,03,20,9.20
2016,04,04,03,21,9.20
2016,04,04,03,22,9.20
2016,04,04,03,23,9.20
2016,04,04,03,24,9.20
2016,04,04,03,25,9.20
2016,04,04,03,26,9.20
2016,04,04,03,27,9.20
2016,04,04,03,28,9.20
2016,04,04,03,29,9.20
2016,04,04,03,30,9.20
2016,04,04,03,31,9.20
2016,04,04,03,32,9.30
2016,04,04,03,33,9.30
2016,04,04,03,34,9.30
2016,04,04,03,35,9.30
2016,04,04,03,36,9.30
2016,04,04,03,37,9.30
2016,04,04,03,38,9.30
2016,04,04,03,39,9.30
2016,04,04,03,40,9.30
2016,04,04,03,41,9.30
2016,04,04,03,42,9.30
2016,04,04,03,43,9.30
2016,04,04,03,44,9.30
2016,04,04,03,45,9.30
2016,04,04,03,46,9.30
2016,04,04,03,47,9.40
2016,04,04,03,48,9.40
2016,04,04,03,49,9.40
2016,04,04,03,50,9.40
2016,04,04,03,51,9.40
2016,04,04,03,52,9.40
2016,04,04,03,53,9.40
2016,04,04,03,54,9.40
2016,04,04,03,55,9.40
2016,04,04,03,56,9.40
2016,04,04,03,57,9.40
2016,04,04,03,58,9.40
2016,04,04,03,59,9.40
2016,04,04,04,00,9.40
2016,04,04,04,01,9.40
2016,04,04,04,02,9.40
2016,04,04,04,03,9.40
2016,04,04,04,04,9.40
2016,04,04,04,05,9.30
2016,04,04,04,06,9.30
2016,04,04,04,07,9.30
2016,04,04,04,08,9.30
2016,04,04,04,09,9.30
2016,04,04,04,10,9.30
2016,04,04,04,11,9.30
2016,04,04,04,12,9.30
2016,04,04,04,13,9.20
2016,04,04,04,14,9.20
2016,04,04,04,15,9.20
2016,04,04,04,16,9.20
2016,04,04,04,17,9.20
2016,04,04,04,18,9.20
2016,04,04,04,19,9.20
2016,04,04,04,20,9.10
2016,04,04,04,21,9.10
2016,04,04,04,22,9.10
2016,04,04,04,23,9.10
2016,04,04,04,24,9.10
2016,04,04,04,25,9.10
2016,04,04,04,26,9.10
2016,04,04,04,27,9.10
2016,04,04,04,28,9.10
2016,04,04,04,29,9.10
2016,04,04,04,30,9.10
2016,04,04,04,31,9.00
2016,04,04,04,32,9.00
2016,04,04,04,33,9.00
2016,04,04,04,34,9.00
2016,04,04,04,35,8.90
2016,04,04,04,36,8.90
2016,04,04,04,37,9.00
2016,04,04,04,38,9.00
2016,04,04,04,39,9.00
2016,04,04,04,40,9.00
2016,04,04,04,41,9.00
2016,04,04,04,42,9.00
2016,04,04,04,43,8.90
2016,04,04,04,44,8.90
2016,04,04,04,45,8.90
2016,04,04,04,46,8.90
2016,04,04,04,47,8.90
2016,04,04,04,48,8.80
2016,04,04,04,49,8.80
2016,04,04,04,50,8.80
2016,04,04,04,51,8.80
2016,04,04,04,52,8.80
2016,04,04,04,53,8.80
2016,04,04,04,54,8.80
2016,04,04,04,55,8.80
2016,04,04,04,56,8.80
2016,04,04,04,57,8.80
2016,04,04,04,58,8.80
2016,04,04,04,59,8.80
2016,04,04,05,00,8.80
2016,04,04,05,01,8.80
2016,04,04,05,02,8.70
2016,04,04,05,03,8.70
2016,04,04,05,04,8.70
2016,04,04,05,05,8.70
2016,04,04,05,06,8.70
2016,04,04,05,07,8.70
2016,04,04,05,08,8.70
2016,04,04,05,09,8.70
2016,04,04,05,10,8.70
2016,04,04,05,11,8.70
2016,04,04,05,12,8.70
2016,04,04,05,13,8.70
2016,04,04,05,14,8.70
2016,04,04,05,15,8.70
2016,04,04,05,16,8.70
2016,04,04,05,17,8.70
2016,04,04,05,18,8.70
2016,04,04,05,19,8.70
2016,04,04,05,20,8.70
2016,04,04,05,21,8.60
2016,04,04,05,22,8.60
2016,04,04,05,23,8.60
2016,04,04,05,24,8.60
2016,04,04,05,25,8.60
2016,04,04,05,26,8.60
2016,04,04,05,27,8.60
2016,04,04,05,28,8.60
2016,04,04,05,29,8.60
2016,04,04,05,30,8.60
2016,04,04,05,31,8.50
2016,04,04,05,32,8.50
2016,04,04,05,33,8.50
2016,04,04,05,34,8.50
2016,04,04,05,35,8.50
2016,04,04,05,36,8.50
2016,04,04,05,37,8.50
2016,04,04,05,38,8.50
2016,04,04,05,39,8.50
2016,04,04,05,40,8.50
2016,04,04,05,41,8.50
2016,04,04,05,42,8.50
2016,04,04,05,43,8.50
2016,04,04,05,44,8.40
2016,04,04,05,45,8.40
2016,04,04,05,46,8.40
2016,04,04,05,47,8.40
2016,04,04,05,48,8.40
2016,04,04,05,49,8.40
2016,04,04,05,50,8.30
2016,04,04,05,51,8.30
2016,04,04,05,52,8.30
2016,04,04,05,53,8.30
2016,04,04,05,54,8.30
2016,04,04,05,55,8.30
2016,04,04,05,56,8.30
2016,04,04,05,57,8.30
2016,04,04,05,58,8.30
2016,04,04,05,59,8.20
2016,04,04,06,00,8.20
2016,04,04,06,01,8.20
2016,04,04,06,02,8.20
2016,04,04,06,03,8.20
2016,04,04,06,04,8.20
2016,04,04,06,05,8.20
2016,04,04,06,06,8.10
2016,04,04,06,07,8.10
2016,04,04,06,08,8.10
2016,04,04,06,09,8.10
2016,04,04,06,10,8.10
2016,04,04,06,11,8.20
2016,04,04,06,12,8.20
2016,04,04,06,13,8.10
2016,04,04,06,14,8.10
2016,04,04,06,15,8.10
2016,04,04,06,16,8.10
2016,04,04,06,17,8.20
2016,04,04,06,18,8.20
2016,04,04,06,19,8.20
2016,04,04,06,20,8.20
2016,04,04,06,21,8.20
2016,04,04,06,22,8.20
2016,04,04,06,23,8.20
2016,04,04,06,24,8.20
2016,04,04,06,25,8.10
2016,04,04,06,26,8.10
2016,04,04,06,27,8.00
2016,04,04,06,28,8.00
2016,04,04,06,29,8.00
2016,04,04,06,30,7.90
2016,04,04,06,31,7.90
2016,04,04,06,32,7.90
2016,04,04,06,33,7.90
2016,04,04,06,34,7.90
2016,04,04,06,35,7.90
2016,04,04,06,36,7.90
2016,04,04,06,37,7.90
2016,04,04,06,38,7.90
2016,04,04,06,39,7.90
2016,04,04,06,40,7.80
2016,04,04,06,41,7.80
2016,04,04,06,42,7.80
2016,04,04,06,43,7.80
2016,04,04,06,44,7.80
2016,04,04,06,45,7.80
2016,04,04,06,46,7.70
2016,04,04,06,47,7.70
2016,04,04,06,48,7.70
2016,04,04,06,49,7.70
2016,04,04,06,50,7.60
2016,04,04,06,51,7.60
2016,04,04,06,52,7.60
2016,04,04,06,53,7.60
2016,04,04,06,54,7.60
2016,04,04,06,55,7.60
2016,04,04,06,56,7.60
2016,04,04,06,57,7.60
2016,04,04,06,58,7.60
2016,04,04,06,59,7.60
2016,04,04,07,00,7.60
2016,04,04,07,01,7.50
2016,04,04,07,02,7.50
2016,04,04,07,03,7.40
2016,04,04,07,04,7.40
2016,04,04,07,05,7.40
2016,04,04,07,06,7.30
2016,04,04,07,07,7.30
2016,04,04,07,08,7.30
2016,04,04,07,09,7.20
2016,04,04,07,10,7.20
2016,04,04,07,11,7.10
2016,04,04,07,12,7.10
2016,04,04,07,13,7.10
2016,04,04,07,14,7.00
2016,04,04,07,15,7.00
2016,04,04,07,16,6.90
2016,04,04,07,17,6.90
2016,04,04,07,18,6.90
2016,04,04,07,19,6.90
2016,04,04,07,20,6.90
2016,04,04,07,21,7.00
2016,04,04,07,22,7.10
2016,04,04,07,23,7.10
2016,04,04,07,24,7.10
2016,04,04,07,25,7.20
2016,04,04,07,26,7.20
2016,04,04,07,27,7.20
2016,04,04,07,28,7.20
2016,04,04,07,29,7.30
2016,04,04,07,30,7.30
2016,04,04,07,31,7.20
2016,04,04,07,32,7.20
2016,04,04,07,33,7.20
2016,04,04,07,34,7.10
2016,04,04,07,35,7.10
2016,04,04,07,36,7.00
2016,04,04,07,37,7.00
2016,04,04,07,38,7.00
2016,04,04,07,39,7.00
2016,04,04,07,40,7.00
2016,04,04,07,41,7.00
2016,04,04,07,42,7.00
2016,04,04,07,43,7.00
2016,04,04,07,44,7.00
2016,04,04,07,45,7.00
2016,04,04,07,46,7.10
2016,04,04,07,47,7.10
2016,04,04,07,48,7.10
2016,04,04,07,49,7.20
2016,04,04,07,50,7.30
2016,04,04,07,51,7.30
2016,04,04,07,52,7.30
2016,04,04,07,53,7.40
2016,04,04,07,54,7.40
2016,04,04,07,55,7.50
2016,04,04,07,56,7.60
2016,04,04,07,57,7.60
2016,04,04,07,58,7.70
2016,04,04,07,59,7.70
2016,04,04,08,00,7.80
2016,04,04,08,01,7.80
2016,04,04,08,02,7.80
2016,04,04,08,03,7.80
2016,04,04,08,04,7.90
2016,04,04,08,05,7.90
2016,04,04,08,06,8.00
2016,04,04,08,07,8.10
2016,04,04,08,08,8.20
2016,04,04,08,09,8.20
2016,04,04,08,10,8.30
2016,04,04,08,11,8.40
2016,04,04,08,12,8.50
2016,04,04,08,13,8.60
2016,04,04,08,14,8.70
2016,04,04,08,15,8.80
2016,04,04,08,16,8.80
2016,04,04,08,17,8.90
2016,04,04,08,18,9.00
2016,04,04,08,19,9.10
2016,04,04,08,20,9.10
2016,04,04,08,21,9.20
2016,04,04,08,22,9.30
2016,04,04,08,23,9.30
2016,04,04,08,24,9.40
2016,04,04,08,25,9.40
2016,04,04,08,26,9.50
2016,04,04,08,27,9.50
2016,04,04,08,28,9.60
2016,04,04,08,29,9.70
2016,04,04,08,30,9.70
2016,04,04,08,31,9.70
2016,04,04,08,32,9.80
2016,04,04,08,33,9.80
2016,04,04,08,34,9.80
2016,04,04,08,35,9.90
2016,04,04,08,36,9.90
2016,04,04,08,37,10.00
2016,04,04,08,38,10.10
2016,04,04,08,39,10.10
2016,04,04,08,40,10.10
2016,04,04,08,41,10.10
2016,04,04,08,42,10.20
2016,04,04,08,43,10.20
2016,04,04,08,44,10.30
2016,04,04,08,45,10.30
2016,04,04,08,46,10.30
2016,04,04,08,47,10.40
2016,04,04,08,48,10.40
2016,04,04,08,49,10.50
2016,04,04,08,50,10.50
2016,04,04,08,51,10.50
2016,04,04,08,52,10.60
2016,04,04,08,53,10.60
2016,04,04,08,54,10.60
2016,04,04,08,55,10.70
2016,04,04,08,56,10.70
2016,04,04,08,57,10.80
2016,04,04,08,58,10.80
2016,04,04,08,59,10.80
2016,04,04,09,00,10.90
2016,04,04,09,01,10.90
2016,04,04,09,02,10.90
2016,04,04,09,03,10.90
2016,04,04,09,04,11.00
2016,04,04,09,05,11.00
2016,04,04,09,06,11.10
2016,04,04,09,07,11.20
2016,04,04,09,08,11.20
2016,04,04,09,09,11.20
2016,04,04,09,10,11.30
2016,04,04,09,11,11.30
2016,04,04,09,12,11.30
2016,04,04,09,13,11.30
2016,04,04,09,14,11.40
2016,04,04,09,15,11.40
2016,04,04,09,16,11.40
2016,04,04,09,17,11.50
2016,04,04,09,18,11.60
2016,04,04,09,19,11.60
2016,04,04,09,20,11.60
2016,04,04,09,21,11.60
2016,04,04,09,22,11.70
2016,04,04,09,23,11.70
2016,04,04,09,24,11.70
2016,04,04,09,25,11.70
2016,04,04,09,26,11.70
2016,04,04,09,27,11.80
2016,04,04,09,28,11.80
2016,04,04,09,29,11.80
2016,04,04,09,30,11.80
2016,04,04,09,31,11.90
2016,04,04,09,32,12.00
2016,04,04,09,33,12.00
2016,04,04,09,34,12.00
2016,04,04,09,35,12.10
2016,04,04,09,36,12.10
2016,04,04,09,37,12.10
2016,04,04,09,38,12.10
2016,04,04,09,39,12.10
2016,04,04,09,40,12.10
2016,04,04,09,41,12.10
2016,04,04,09,42,12.10
2016,04,04,09,43,12.10
2016,04,04,09,44,12.10
2016,04,04,09,45,12.20
2016,04,04,09,46,12.20
2016,04,04,09,47,12.30
2016,04,04,09,48,12.30
2016,04,04,09,49,12.30
2016,04,04,09,50,12.40
2016,04,04,09,51,12.40
2016,04,04,09,52,12.40
2016,04,04,09,53,12.40
2016,04,04,09,54,12.40
2016,04,04,09,55,12.50
2016,04,04,09,56,12.50
2016,04,04,09,57,12.50
2016,04,04,09,58,12.50
2016,04,04,09,59,12.50
2016,04,04,10,00,12.50
2016,04,04,10,01,12.60
2016,04,04,10,02,12.60
2016,04,04,10,03,12.60
2016,04,04,10,04,12.60
2016,04,04,10,05,12.60
2016,04,04,10,06,12.70
2016,04,04,10,07,12.70
2016,04,04,10,08,12.70
2016,04,04,10,09,12.70
2016,04,04,10,10,12.70
2016,04,04,10,11,12.70
2016,04,04,10,12,12.70
2016,04,04,10,13,12.80
2016,04,04,10,14,12.80
2016,04,04,10,15,12.80
2016,04,04,10,16,12.90
2016,04,04,10,17,12.90
2016,04,04,10,18,13.00
2016,04,04,10,19,13.00
2016,04,04,10,20,13.00
2016,04,04,10,21,13.10
2016,04,04,10,22,13.10
2016,04,04,10,23,13.10
2016,04,04,10,24,13.20
2016,04,04,10,25,13.20
2016,04,04,10,26,13.30
2016,04,04,10,27,13.30
2016,04,04,10,28,13.20
2016,04,04,10,29,13.20
2016,04,04,10,30,13.20
2016,04,04,10,31,13.20
2016,04,04,10,32,13.20
2016,04,04,10,33,13.20
2016,04,04,10,34,13.20
2016,04,04,10,35,13.30
2016,04,04,10,36,13.30
2016,04,04,10,37,13.40
2016,04,04,10,38,13.40
2016,04,04,10,39,13.50
2016,04,04,10,40,13.60
2016,04,04,10,41,13.60
2016,04,04,10,42,13.70
2016,04,04,10,43,13.70
2016,04,04,10,44,13.80
2016,04,04,10,45,13.80
2016,04,04,10,46,13.90
2016,04,04,10,47,13.90
2016,04,04,10,48,13.80
2016,04,04,10,49,13.80
2016,04,04,10,50,13.80
2016,04,04,10,51,13.80
2016,04,04,10,52,13.70
2016,04,04,10,53,13.60
2016,04,04,10,54,13.60
2016,04,04,10,55,13.60
2016,04,04,10,56,13.60
2016,04,04,10,57,13.60
2016,04,04,10,58,13.60
2016,04,04,10,59,13.60
2016,04,04,11,00,13.70
2016,04,04,11,01,13.60
2016,04,04,11,02,13.50
2016,04,04,11,03,13.20
2016,04,04,11,04,13.00
2016,04,04,11,05,12.80
2016,04,04,11,06,12.60
2016,04,04,11,07,12.50
2016,04,04,11,08,12.30
2016,04,04,11,09,12.20
2016,04,04,11,10,12.10
2016,04,04,11,11,12.10
2016,04,04,11,12,12.00
2016,04,04,11,13,11.90
2016,04,04,11,14,11.90
2016,04,04,11,15,11.90
2016,04,04,11,16,11.90
2016,04,04,11,17,11.90
2016,04,04,11,18,11.90
2016,04,04,11,19,12.00
2016,04,04,11,20,12.10
2016,04,04,11,21,12.10
2016,04,04,11,22,12.20
2016,04,04,11,23,12.20
2016,04,04,11,24,12.30
2016,04,04,11,25,12.30
2016,04,04,11,26,12.30
2016,04,04,11,27,12.30
2016,04,04,11,28,12.20
2016,04,04,11,29,12.20
2016,04,04,11,30,12.20
2016,04,04,11,31,12.20
2016,04,04,11,32,12.10
2016,04,04,11,33,12.00
2016,04,04,11,34,12.00
2016,04,04,11,35,11.90
2016,04,04,11,36,11.90
2016,04,04,11,37,11.80
2016,04,04,11,38,11.80
2016,04,04,11,39,11.70
2016,04,04,11,40,11.70
2016,04,04,11,41,11.70
2016,04,04,11,42,11.70
2016,04,04,11,43,11.60
2016,04,04,11,44,11.60
2016,04,04,11,45,11.60
2016,04,04,11,46,11.60
2016,04,04,11,47,11.60
2016,04,04,11,48,11.60
2016,04,04,11,49,11.60
2016,04,04,11,50,11.70
2016,04,04,11,51,11.60
2016,04,04,11,52,11.60
2016,04,04,11,53,11.70
2016,04,04,11,54,11.70
2016,04,04,11,55,11.70
2016,04,04,11,56,11.80
2016,04,04,11,57,11.80
2016,04,04,11,58,11.90
2016,04,04,11,59,11.90
2016,04,04,12,00,11.90
2016,04,04,12,01,12.00
2016,04,04,12,02,12.00
2016,04,04,12,03,12.10
2016,04,04,12,04,12.10
2016,04,04,12,05,12.20
2016,04,04,12,06,12.20
2016,04,04,12,07,12.30
2016,04,04,12,08,12.30
2016,04,04,12,09,12.30
2016,04,04,12,10,12.30
2016,04,04,12,11,12.30
2016,04,04,12,12,12.30
2016,04,04,12,13,12.30
2016,04,04,12,14,12.30
2016,04,04,12,15,12.30
2016,04,04,12,16,12.30
2016,04,04,12,17,12.30
2016,04,04,12,18,12.30
2016,04,04,12,19,12.40
2016,04,04,12,20,12.50
2016,04,04,12,21,12.50
2016,04,04,12,22,12.50
2016,04,04,12,23,12.50
2016,04,04,12,24,12.60
2016,04,04,12,25,12.60
2016,04,04,12,26,12.50
2016,04,04,12,27,12.50
2016,04,04,12,28,12.50
2016,04,04,12,29,12.50
2016,04,04,12,30,12.60
2016,04,04,12,31,12.60
2016,04,04,12,32,12.60
2016,04,04,12,33,12.60
2016,04,04,12,34,12.60
2016,04,04,12,35,12.60
2016,04,04,12,36,12.60
2016,04,04,12,37,12.70
2016,04,04,12,38,12.70
2016,04,04,12,39,12.80
2016,04,04,12,40,13.00
2016,04,04,12,41,13.10
2016,04,04,12,42,13.20
2016,04,04,12,43,13.20
2016,04,04,12,44,13.20
2016,04,04,12,45,13.10
2016,04,04,12,46,13.00
2016,04,04,12,47,12.90
2016,04,04,12,48,12.80
2016,04,04,12,49,12.70
2016,04,04,12,50,12.70
2016,04,04,12,51,12.70
2016,04,04,12,52,12.70
2016,04,04,12,53,12.70
2016,04,04,12,54,12.60
2016,04,04,12,55,12.50
2016,04,04,12,56,12.50
2016,04,04,12,57,12.40
2016,04,04,12,58,12.30
2016,04,04,12,59,12.30
2016,04,04,13,00,12.20
2016,04,04,13,01,12.10
2016,04,04,13,02,12.00
2016,04,04,13,03,11.90
2016,04,04,13,04,11.90
2016,04,04,13,05,11.80
2016,04,04,13,06,11.80
2016,04,04,13,07,11.80
2016,04,04,13,08,11.70
2016,04,04,13,09,11.70
2016,04,04,13,10,11.70
2016,04,04,13,11,11.70
2016,04,04,13,12,11.70
2016,04,04,13,13,11.70
2016,04,04,13,14,11.60
2016,04,04,13,15,11.60
2016,04,04,13,16,11.60
2016,04,04,13,17,11.50
2016,04,04,13,18,11.50
2016,04,04,13,19,11.50
2016,04,04,13,20,11.50
2016,04,04,13,21,11.40
2016,04,04,13,22,11.40
2016,04,04,13,23,11.30
2016,04,04,13,24,11.30
2016,04,04,13,25,11.20
2016,04,04,13,26,11.20
2016,04,04,13,27,11.20
2016,04,04,13,28,11.20
2016,04,04,13,29,11.20
2016,04,04,13,30,11.30
2016,04,04,13,31,11.20
2016,04,04,13,32,11.20
2016,04,04,13,33,11.20
2016,04,04,13,34,11.10
2016,04,04,13,35,11.10
2016,04,04,13,36,11.10
2016,04,04,13,37,11.00
2016,04,04,13,38,11.00
2016,04,04,13,39,10.90
2016,04,04,13,40,10.90
2016,04,04,13,41,10.80
2016,04,04,13,42,10.80
2016,04,04,13,43,10.80
2016,04,04,13,44,10.80
2016,04,04,13,45,10.80
2016,04,04,13,46,10.80
2016,04,04,13,47,10.80
2016,04,04,13,48,10.80
2016,04,04,13,49,10.80
2016,04,04,13,50,10.80
2016,04,04,13,51,10.90
2016,04,04,13,52,10.90
2016,04,04,13,53,10.90
2016,04,04,13,54,11.00
2016,04,04,13,55,11.00
2016,04,04,13,56,11.00
2016,04,04,13,57,11.00
2016,04,04,13,58,10.90
2016,04,04,13,59,10.80
2016,04,04,14,00,10.80
2016,04,04,14,01,10.90
2016,04,04,14,02,10.90
2016,04,04,14,03,11.00
2016,04,04,14,04,11.10
2016,04,04,14,05,11.20
2016,04,04,14,06,11.40
2016,04,04,14,07,11.60
2016,04,04,14,08,11.60
2016,04,04,14,09,11.60
2016,04,04,14,10,11.60
2016,04,04,14,11,11.60
2016,04,04,14,12,11.60
2016,04,04,14,13,11.70
2016,04,04,14,14,11.80
2016,04,04,14,15,12.00
2016,04,04,14,16,12.10
2016,04,04,14,17,12.10
2016,04,04,14,18,12.20
2016,04,04,14,19,12.30
2016,04,04,14,20,12.40
2016,04,04,14,21,12.40
2016,04,04,14,22,12.40
2016,04,04,14,23,12.40
2016,04,04,14,24,12.50
2016,04,04,14,25,12.40
2016,04,04,14,26,12.40
2016,04,04,14,27,12.50
2016,04,04,14,28,12.50
2016,04,04,14,29,12.60
2016,04,04,14,30,12.70
2016,04,04,14,31,12.80
2016,04,04,14,32,12.90
2016,04,04,14,33,13.00
2016,04,04,14,34,13.10
2016,04,04,14,35,13.20
2016,04,04,14,36,13.40
2016,04,04,14,37,13.50
2016,04,04,14,38,13.60
2016,04,04,14,39,13.70
2016,04,04,14,40,13.70
2016,04,04,14,41,13.70
2016,04,04,14,42,13.70
2016,04,04,14,43,13.80
2016,04,04,14,44,13.90
2016,04,04,14,45,13.90
2016,04,04,14,46,13.90
2016,04,04,14,47,14.00
2016,04,04,14,48,14.10
2016,04,04,14,49,14.10
2016,04,04,14,50,14.10
2016,04,04,14,51,14.20
2016,04,04,14,52,14.30
2016,04,04,14,53,14.30
2016,04,04,14,54,14.30
2016,04,04,14,55,14.40
2016,04,04,14,56,14.30
2016,04,04,14,57,14.30
2016,04,04,14,58,14.30
2016,04,04,14,59,14.30
2016,04,04,15,00,14.40
2016,04,04,15,01,14.40
2016,04,04,15,02,14.40
2016,04,04,15,03,14.40
2016,04,04,15,04,14.30
2016,04,04,15,05,14.40
2016,04,04,15,06,14.40
2016,04,04,15,07,14.50
2016,04,04,15,08,14.60
2016,04,04,15,09,14.80
2016,04,04,15,10,14.90
2016,04,04,15,11,15.00
2016,04,04,15,12,15.00
2016,04,04,15,13,15.10
2016,04,04,15,14,15.20
2016,04,04,15,15,15.30
2016,04,04,15,16,15.20
2016,04,04,15,17,15.20
2016,04,04,15,18,15.20
2016,04,04,15,19,15.10
2016,04,04,15,20,15.10
2016,04,04,15,21,15.00
2016,04,04,15,22,15.00
2016,04,04,15,23,14.90
2016,04,04,15,24,14.90
2016,04,04,15,25,14.80
2016,04,04,15,26,14.70
2016,04,04,15,27,14.70
2016,04,04,15,28,14.60
2016,04,04,15,29,14.50
2016,04,04,15,30,14.40
2016,04,04,15,31,14.40
2016,04,04,15,32,14.30
2016,04,04,15,33,14.30
2016,04,04,15,34,14.20
2016,04,04,15,35,14.20
2016,04,04,15,36,14.10
2016,04,04,15,37,14.10
2016,04,04,15,38,14.10
2016,04,04,15,39,14.10
2016,04,04,15,40,14.20
2016,04,04,15,41,14.20
2016,04,04,15,42,14.20
2016,04,04,15,43,14.10
2016,04,04,15,44,14.10
2016,04,04,15,45,14.00
2016,04,04,15,46,13.90
2016,04,04,15,47,13.80
2016,04,04,15,48,13.80
2016,04,04,15,49,13.70
2016,04,04,15,50,13.60
2016,04,04,15,51,13.60
2016,04,04,15,52,13.60
2016,04,04,15,53,13.50
2016,04,04,15,54,13.50
2016,04,04,15,55,13.60
2016,04,04,15,56,13.60
2016,04,04,15,57,13.60
2016,04,04,15,58,13.50
2016,04,04,15,59,13.50
2016,04,04,16,00,13.50
2016,04,04,16,01,13.40
2016,04,04,16,02,13.40
2016,04,04,16,03,13.40
2016,04,04,16,04,13.40
2016,04,04,16,05,13.30
2016,04,04,16,06,13.30
2016,04,04,16,07,13.30
2016,04,04,16,08,13.30
2016,04,04,16,09,13.30
2016,04,04,16,10,13.30
2016,04,04,16,11,13.30
2016,04,04,16,12,13.20
2016,04,04,16,13,13.20
2016,04,04,16,14,13.20
2016,04,04,16,15,13.20
2016,04,04,16,16,13.20
2016,04,04,16,17,13.20
2016,04,04,16,18,13.20
2016,04,04,16,19,13.10
2016,04,04,16,20,13.10
2016,04,04,16,21,13.10
2016,04,04,16,22,13.10
2016,04,04,16,23,13.10
2016,04,04,16,24,13.10
2016,04,04,16,25,13.10
2016,04,04,16,26,13.10
2016,04,04,16,27,13.10
2016,04,04,16,28,13.10
2016,04,04,16,29,13.10
2016,04,04,16,30,13.20
2016,04,04,16,31,13.20
2016,04,04,16,32,13.10
2016,04,04,16,33,13.10
2016,04,04,16,34,13.20
2016,04,04,16,35,13.20
2016,04,04,16,36,13.20
2016,04,04,16,37,13.20
2016,04,04,16,38,13.20
2016,04,04,16,39,13.20
2016,04,04,16,40,13.10
2016,04,04,16,41,13.10
2016,04,04,16,42,13.20
2016,04,04,16,43,13.10
2016,04,04,16,44,13.10
2016,04,04,16,45,13.10
2016,04,04,16,46,13.10
2016,04,04,16,47,13.20
2016,04,04,16,48,13.20
2016,04,04,16,49,13.20
2016,04,04,16,50,13.30
2016,04,04,16,51,13.30
2016,04,04,16,52,13.30
2016,04,04,16,53,13.30
2016,04,04,16,54,13.30
2016,04,04,16,55,13.30
2016,04,04,16,56,13.30
2016,04,04,16,57,13.30
2016,04,04,16,58,13.30
2016,04,04,16,59,13.40
2016,04,04,17,00,13.40
2016,04,04,17,01,13.50
2016,04,04,17,02,13.50
2016,04,04,17,03,13.60
2016,04,04,17,04,13.60
2016,04,04,17,05,13.70
2016,04,04,17,06,13.70
2016,04,04,17,07,13.70
2016,04,04,17,08,13.70
2016,04,04,17,09,13.60
2016,04,04,17,10,13.50
2016,04,04,17,11,13.40
2016,04,04,17,12,13.40
2016,04,04,17,13,13.40
2016,04,04,17,14,13.30
2016,04,04,17,15,13.30
2016,04,04,17,16,13.30
2016,04,04,17,17,13.30
2016,04,04,17,18,13.30
2016,04,04,17,19,13.20
2016,04,04,17,20,13.20
2016,04,04,17,21,13.20
2016,04,04,17,22,13.20
2016,04,04,17,23,13.20
2016,04,04,17,24,13.20
2016,04,04,17,25,13.20
2016,04,04,17,26,13.20
2016,04,04,17,27,13.30
2016,04,04,17,28,13.30
2016,04,04,17,29,13.30
2016,04,04,17,30,13.30
2016,04,04,17,31,13.30
2016,04,04,17,32,13.30
2016,04,04,17,33,13.30
2016,04,04,17,34,13.50
2016,04,04,17,35,13.60
2016,04,04,17,36,13.60
2016,04,04,17,37,13.70
2016,04,04,17,38,13.80
2016,04,04,17,39,13.80
2016,04,04,17,40,13.90